Thief River Falls, MN

9:53 AM CST on February 19, 2017 (GMT -0600)
Thief River Falls Regional

Weather History for KTVF - January, 2013

Change the Weather History Date:

Thursday, January 3, 2013

  Actual Average Record
Temperature  
Mean Temperature 6 °F -  
Max Temperature 19 °F 13 °F 35 °F (1984)
Min Temperature -7 °F 0 °F -27 °F (1982)
Degree Days  
Heating Degree Days 59    
Moisture  
Dew Point 4 °F    
Average Humidity 84    
Maximum Humidity 100    
Minimum Humidity 65    
Precipitation  
Precipitation 0.00 in - - ()
Sea Level Pressure  
Sea Level Pressure 30.07 in    
Wind  
Wind Speed 11 mph (SW)    
Max Wind Speed 22 mph    
Max Gust Speed 29 mph    
Visibility 10 miles    
Events      
Averages and records for this station are not official NWS values.
T = Trace of Precipitation, MM = Missing Value Source: NWS Daily Summary

Daily Weather History Graph

Daily Weather History Graph

Search for Another Location

Airport or City:

Trip Planner

Search our weather history database for the weather conditions in past years. The results will help you decide how hot, cold, wet, or windy it might be!

Date:

Astronomy

Jan. 03, 2013 Rise Set
Actual Time 8:14 AM CST 4:44 PM CST
Civil Twilight 7:38 AM CST 5:20 PM CST
Nautical Twilight 6:59 AM CST 5:59 PM CST
Astronomical Twilight 6:21 AM CST 6:37 PM CST
Moon 11:54 PM CST (1/3) 10:56 AM CST (1/3)
Length of Visible Light 9h 41m
Length of Day
8h 29m
Waning Gibbous, 65% of the Moon is Illuminated
Jan 3
Waning Gibbous
Jan 4
Last Quarter
Jan 11
New
Jan 18
First Quarter
Jan 26
Full

Hourly Weather History & Observations

Time (CST) Temp. Windchill Dew Point Humidity Pressure Visibility Wind Dir Wind Speed Gust Speed Precip Events Conditions
12:15 AM 1.4 °F -15.3 °F -2.2 °F 85% 30.20 in 10.0 mi WNW 11.5 mph - N/A   Overcast
12:35 AM 1.4 °F -14.5 °F -2.2 °F 85% 30.20 in 10.0 mi NW 10.4 mph - N/A   Overcast
12:55 AM 1.4 °F -16.1 °F -0.4 °F 92% 30.19 in 10.0 mi NW 12.7 mph - N/A   Overcast
1:15 AM 1.4 °F -15.3 °F -2.2 °F 85% 30.19 in 9.0 mi NW 11.5 mph - N/A   Overcast
1:35 AM -0.4 °F -15.7 °F -4.0 °F 85% 30.19 in 10.0 mi NW 9.2 mph - N/A   Overcast
1:55 AM -0.4 °F -14.7 °F -5.8 °F 78% 30.21 in 10.0 mi NW 8.1 mph - N/A   Overcast
2:15 AM -2.2 °F -16.8 °F -5.8 °F 85% 30.21 in 10.0 mi NW 8.1 mph - N/A   Mostly Cloudy
2:35 AM -2.2 °F -16.8 °F -5.8 °F 85% 30.22 in 10.0 mi NW 8.1 mph - N/A   Mostly Cloudy
2:55 AM -2.2 °F -15.6 °F -7.6 °F 78% 30.22 in 10.0 mi NW 6.9 mph - N/A   Partly Cloudy
3:15 AM -2.2 °F -16.8 °F -5.8 °F 85% 30.23 in 10.0 mi NW 8.1 mph - N/A   Clear
3:35 AM -4.0 °F -19.0 °F -7.6 °F 85% 30.24 in 10.0 mi WNW 8.1 mph - N/A   Clear
3:55 AM -4.0 °F -12.4 °F -5.8 °F 92% 30.22 in 10.0 mi WNW 3.5 mph - N/A   Clear
4:15 AM -4.0 °F - -7.6 °F 85% 30.22 in 10.0 mi Calm Calm - N/A   Clear
4:35 AM -4.0 °F -12.4 °F -7.6 °F 85% 30.22 in 10.0 mi West 3.5 mph - N/A   Clear
4:55 AM -4.0 °F -14.6 °F -7.6 °F 85% 30.22 in 10.0 mi SW 4.6 mph - N/A   Clear
5:15 AM -5.8 °F - -11.2 °F 77% 30.22 in 10.0 mi Calm Calm - N/A   Clear
5:35 AM -5.8 °F - -7.6 °F 92% 30.23 in 10.0 mi Calm Calm - N/A   Clear
5:55 AM -5.8 °F - -5.8 °F 100% 30.22 in 10.0 mi Calm Calm - N/A   Clear
6:15 AM -7.6 °F - -16.6 °F 65% 30.22 in 10.0 mi Calm Calm - N/A   Mostly Cloudy
6:35 AM -5.8 °F - -5.8 °F 100% 30.21 in 10.0 mi Calm Calm - N/A   Mostly Cloudy
6:55 AM -7.6 °F - -14.8 °F 71% 30.22 in 10.0 mi Calm Calm - N/A   Mostly Cloudy
7:35 AM -2.2 °F -14.2 °F -5.8 °F 85% 30.21 in 10.0 mi South 5.8 mph - N/A   Overcast
7:55 AM -2.2 °F -15.6 °F -5.8 °F 85% 30.19 in 10.0 mi South 6.9 mph - N/A   Overcast
8:15 AM -2.2 °F -16.8 °F -5.8 °F 85% 30.19 in 10.0 mi South 8.1 mph - N/A   Partly Cloudy
8:35 AM -2.2 °F -18.0 °F -2.2 °F 100% 30.18 in 10.0 mi South 9.2 mph - N/A   Partly Cloudy
8:55 AM -0.4 °F -13.4 °F -4.0 °F 85% 30.18 in 10.0 mi SSW 6.9 mph - N/A   Mostly Cloudy
9:15 AM -0.4 °F -16.7 °F -2.2 °F 92% 30.17 in 10.0 mi SSW 10.4 mph - N/A   Overcast
9:35 AM 1.4 °F -14.5 °F -2.2 °F 85% 30.16 in 4.0 mi South 10.4 mph - N/A   Overcast
9:55 AM 1.4 °F -14.5 °F 1.4 °F 100% 30.16 in 3.0 mi SSW 10.4 mph - N/A   Overcast
10:15 AM 3.2 °F -13.9 °F -0.4 °F 85% 30.15 in 9.0 mi South 12.7 mph - N/A   Scattered Clouds
10:35 AM 5.0 °F -11.6 °F 3.2 °F 92% 30.14 in 10.0 mi SSW 12.7 mph - N/A   Clear
10:55 AM 6.8 °F -10.0 °F 5.0 °F 92% 30.13 in 10.0 mi SSW 13.8 mph - N/A   Clear
11:15 AM 6.8 °F -10.0 °F 5.0 °F 92% 30.12 in 10.0 mi SSW 13.8 mph - N/A   Clear
11:35 AM 8.6 °F -8.3 °F 6.8 °F 92% 30.11 in 10.0 mi SSW 15.0 mph 20.7 mph N/A   Clear
11:55 AM 10.4 °F -7.2 °F 8.6 °F 92% 30.10 in 7.0 mi SSW 17.3 mph - N/A   Clear
12:15 PM 12.2 °F -5.3 °F 8.6 °F 85% 30.08 in 7.0 mi SSW 18.4 mph - N/A   Clear
12:35 PM 12.2 °F -5.3 °F 8.6 °F 85% 30.07 in 10.0 mi SSW 18.4 mph 21.9 mph N/A   Clear
12:55 PM 12.2 °F -5.3 °F 8.6 °F 85% 30.06 in 10.0 mi SSW 18.4 mph - N/A   Clear
1:15 PM 12.2 °F -5.3 °F 8.6 °F 85% 30.05 in 10.0 mi SSW 18.4 mph 24.2 mph N/A   Clear
1:35 PM 12.2 °F -4.8 °F 10.4 °F 92% 30.03 in 10.0 mi SSW 17.3 mph - N/A   Clear
1:55 PM 14.0 °F -2.5 °F 10.4 °F 86% 30.03 in 10.0 mi SSW 17.3 mph - N/A   Clear
2:15 PM 15.8 °F -0.2 °F 12.2 °F 86% 30.03 in 10.0 mi SSW 17.3 mph - N/A   Clear
2:35 PM 15.8 °F -0.2 °F 12.2 °F 86% 30.02 in 10.0 mi SSW 17.3 mph - N/A   Clear
2:55 PM 15.8 °F -1.1 °F 10.4 °F 79% 30.01 in 10.0 mi SSW 19.6 mph - N/A   Clear
3:15 PM 15.8 °F 0.3 °F 10.4 °F 79% 30.01 in 10.0 mi SSW 16.1 mph 21.9 mph N/A   Clear
3:35 PM 17.6 °F 2.7 °F 12.2 °F 79% 30.00 in 10.0 mi SSW 16.1 mph - N/A   Clear
3:55 PM 17.6 °F 1.7 °F 12.2 °F 79% 29.99 in 10.0 mi SSW 18.4 mph - N/A   Clear
4:15 PM 17.6 °F 0.9 °F 12.2 °F 79% 29.98 in 10.0 mi SSW 20.7 mph 26.5 mph N/A   Clear
4:35 PM 17.6 °F 0.5 °F 12.2 °F 79% 29.97 in 10.0 mi SSW 21.9 mph 25.3 mph N/A   Clear
4:55 PM 17.6 °F 0.9 °F 12.2 °F 79% 29.96 in 10.0 mi SSW 20.7 mph 26.5 mph N/A   Clear
5:15 PM 17.6 °F 0.5 °F 12.2 °F 79% 29.95 in 10.0 mi SSW 21.9 mph 26.5 mph N/A   Clear
5:35 PM 17.6 °F 0.5 °F 14.0 °F 86% 29.94 in 10.0 mi SSW 21.9 mph - N/A   Clear
5:55 PM 17.6 °F 0.9 °F 12.2 °F 79% 29.93 in 10.0 mi SSW 20.7 mph 28.8 mph N/A   Clear
6:15 PM 17.6 °F 0.9 °F 12.2 °F 79% 29.92 in 10.0 mi SSW 20.7 mph 27.6 mph N/A   Clear
6:35 PM 17.6 °F 1.3 °F 14.0 °F 86% 29.91 in 10.0 mi SSW 19.6 mph 26.5 mph N/A   Clear
6:55 PM 17.6 °F 1.3 °F 14.0 °F 86% 29.91 in 10.0 mi SSW 19.6 mph 27.6 mph N/A   Clear
7:15 PM 19.4 °F 4.1 °F 15.8 °F 86% 29.90 in 10.0 mi SSW 18.4 mph - N/A   Clear
7:35 PM 17.6 °F 3.7 °F 14.0 °F 86% 29.91 in 10.0 mi SSW 13.8 mph - N/A   Clear
7:55 PM 17.6 °F 1.3 °F 12.2 °F 79% 29.90 in 10.0 mi SSW 19.6 mph - N/A   Clear
8:15 PM 17.6 °F 2.7 °F 14.0 °F 86% 29.88 in 10.0 mi SSW 16.1 mph - N/A   Clear
8:35 PM 17.6 °F 1.3 °F 14.0 °F 86% 29.88 in 10.0 mi SW 19.6 mph - N/A   Clear
8:55 PM 17.6 °F 1.7 °F 12.2 °F 79% 29.87 in 10.0 mi SW 18.4 mph - N/A   Clear
9:15 PM 17.6 °F 2.2 °F 12.2 °F 79% 29.87 in 10.0 mi SW 17.3 mph - N/A   Clear
9:35 PM 17.6 °F 3.2 °F 12.2 °F 79% 29.87 in 10.0 mi SW 15.0 mph - N/A   Clear
9:55 PM 19.4 °F 5.5 °F 12.2 °F 74% 29.87 in 10.0 mi SW 15.0 mph - N/A   Clear
10:15 PM 19.4 °F 4.1 °F 12.2 °F 74% 29.86 in 10.0 mi SW 18.4 mph - N/A   Clear
10:35 PM 17.6 °F 4.3 °F 12.2 °F 79% 29.87 in 10.0 mi SW 12.7 mph - N/A   Clear
10:55 PM 17.6 °F 3.7 °F 12.2 °F 79% 29.88 in 10.0 mi SW 13.8 mph 19.6 mph N/A   Clear
11:15 PM 17.6 °F 4.3 °F 12.2 °F 79% 29.89 in 10.0 mi SW 12.7 mph - N/A   Clear
11:35 PM 17.6 °F 6.4 °F 10.4 °F 73% 29.89 in 10.0 mi SW 9.2 mph - N/A   Clear